Find Kosmos-2144

NORAD ID: 21300 Int'l Des: 1991-033 Owner: UNKSR Country: SU operational
LEOCIRCULARPOLAR

当前视图

正在加载3D地球...

About Kosmos-2144

Kosmos-2144 (NORAD 21300) is a satellite launched May 16, 1991 by UNKSR of SU. It operates in LEO, CIRCULAR, POLAR orbit with a mass of 225.00 kg.

即将过境

Passes for default location (London). Set your location on the main map for personalized predictions.

高度历史

Loading altitude history...

两行轨道根数

1 21300U 91033B 26194.78607645 .00000005 00000-0 -31948-4 0 9992
2 21300 82.5800 312.4025 0005822 61.1966 298.9709 12.62393795619810
Epoch: Jul 13, 2026 • Age: 21 hours

当前状态

高度 1415.6 km
远地点 / 近地点 N/A
速度 7.15 km/s
星下点 -8.61°S, 142.05°E
发射日期 May 16, 1991
运行时间 35.1 years
类型 other

技术详情

分类 Payload
质量 225.00 kg
干质量 225.00 kg
总质量 225.00 kg
长度 1.60 m
直径 0.80 m
跨度 7.00 m
形状 Cyl + Ant
制造商 NPOPM
平台类型 Strela-3
阶段状态 In Orbit
所有者/国家 UNKSR/SU

Most Searched